Simultaneous Nadir Overpasses (SNOs) Predictions

Prediction of SNOs between METOP-B and NOAA-19 Satellite Orbit:

Table of predicted SNOs for the next 14.0 days since TLE Epoch: 2/7/2014
Index Date (METOP-B) Time (METOP-B) Lat,Lon (METOP-B) SZA (METOP-B ) Date (NOAA-19) Time (NOAA-19) Lat,Lon (NOAA-19) SZA (NOAA-19 ) Distance(km) Time Diff (sec)
1 02/11/2014 06:10:37 74.39, 83.35 88.46 02/11/2014 06:09:31 74.37, 80.19 88.59 94.78 66
2 02/11/2014 07:01:31 -73.74,-110.92 92.14 02/11/2014 07:00:16 -73.76,-110.99 92.10 2.80 75
3 02/11/2014 07:52:12 73.72, 56.37 87.84 02/11/2014 07:51:22 73.73, 56.29 87.87 2.99 50
4 02/11/2014 08:42:53 -73.72,-136.31 92.18 02/11/2014 08:42:19 -73.71,-136.39 92.18 2.60 34
5 02/11/2014 09:33:34 73.70, 30.98 87.80 02/11/2014 09:33:25 73.69, 30.89 87.79 3.15 9
6 02/11/2014 10:24:16 -73.64,-161.82 92.27 02/11/2014 10:24:22 -73.66,-161.79 92.26 1.92 6
7 02/11/2014 11:14:57 73.63, 5.47 87.71 02/11/2014 11:15:28 73.64, 5.49 87.72 1.51 31
8 02/11/2014 12:05:38 -73.62, 172.79 92.31 02/11/2014 12:06:25 -73.61, 172.81 92.33 1.53 47
9 02/11/2014 12:56:19 73.60, -19.93 87.67 02/11/2014 12:57:31 73.59, -19.91 87.64 1.43 72
10 02/11/2014 13:47:11 -73.05, 146.17 92.84 02/11/2014 13:48:19 -73.12, 148.44 92.89 73.92 68
11 02/21/2014 10:16:59 -74.12,-158.89 95.31 02/21/2014 10:15:49 -74.17,-160.79 95.17 57.78 70
12 02/21/2014 11:07:47 73.74, 7.52 84.35 02/21/2014 11:06:44 73.75, 7.51 84.36 0.32 63
13 02/21/2014 11:58:28 -73.75, 174.87 95.66 02/21/2014 11:57:44 -73.73, 174.79 95.67 3.36 44
14 02/21/2014 12:49:09 73.72, -17.87 84.30 02/21/2014 12:48:47 73.70, -17.89 84.28 2.54 22
15 02/21/2014 13:39:51 -73.68, 149.36 95.76 02/21/2014 13:39:47 -73.69, 149.39 95.75 1.14 4
16 02/21/2014 14:30:32 73.65, -43.38 84.21 02/21/2014 14:30:50 73.65, -43.29 84.20 2.98 18




NCC Satellite Simultaneous Nadir Overpasses (SNOs) Prediction Service
